COSMOS 2251 DEB, 34879

Orbit data source: Space-Track

COSMOS 2251 DEB, 34879 is space debris in LEO originally from a launch on Wed, 16 Jun 1993 UTC launched from the Plesetsk Missile And Space Complex (PKMTR). The debris from Iridium 33, an American commercial communications satellite, has been tracked extensively since its accidental collision with the defunct Russian satellite Cosmos 2251 in 2009. This event, occurring at high speed in low Earth orbit (LEO), generated thousands of pieces of space debris, significantly increasing the risk of further collisions. The Iridium 33 debris cloud has impacted space traffic management and orbital debris mitigation strategies, making it a subject of ongoing study in space situational awareness.

Loading next visibility...
Identifier
34879, 1993-036ACS
Orbit
LEO
Country
Flag of CISCIS
Related business
Manufacturer
Unknown
Mission
Spacecraft
Bus & Motor
Unknown
Mass
Unknown
Launch date (UTC)
1993-06-16 (33 years ago)
Launch vehicle
Unknown
Launch site
Plesetsk Missile And Space Complex (PKMTR)
Object type
Payload
Rocket body
Debris
Shape & HBR
Unknown shape, 1.1 m
Radar Cross Section
Small (<0.1 m²)

Expand to show TLE details & history
Last TLE update: 3 months ago

TLE from 3 months ago
0 COSMOS 2251 DEB
1 34879U 93036ACS 26026.53076294  .00003964  00000-0  37421-2 0  9995
2 34879  73.9091 223.1855 0486850 295.6028  59.5523 13.38782085589401
Epoch: 2026-01-26T12:44Z
TLE epoch observation values (Epoch: 2026-01-26T12:44:17.918Z)
Latitude
-0.00006°
Longitude
-93.71436°
Altitude
945.143 km
Speed
7.463 km/s
True Right ascension
14h 52m 44s
True Declination
0° 00' 00"
Sunlit
Object was in daylight at epoch
Visualization orbit readout
Latitude
Unknown
Longitude
Unknown
Altitude
Unknown
Speed
Unknown
Apparent Right ascension
Unknown
Apparent Declination
Unknown
Sunlit
N/A
Visualization observer readout
Local Sidereal Time
00:17:59
Azimuth
Unknown
Elevation
Unknown
Doppler factor
Unknown
Orbital elements
Apogee altitude
1,476.19 km
Perigee altitude
746.919 km
Semi-major axis
7,489.692 km
Eccentricity
0.04869
Inclination
73.9091°
RAAN
223.1855°
Arg. of periapsis
295.6028°
True anomaly
64.50844°
Mean anomaly
59.5523°
Eccentric anomaly
62.01559°
Mean motion
3.34848 °/min
Orbital period
107.51 mins
BSTAR
0.0037421

Documentation

Showing up to 5 results
|